Snowfall_Accumulation
0.9 0.9 1.1 1.0 1.0 1.2 1.7 2.9 5.2 4.6 1.5 0.3 0.4 0.3 0.5 0.4 0.3 0.5 0.3 0.2 0.3 0.4 0.5 0.4 0.3 0.2 0.2 0.1 0.1 0.0 0.0 0.0 0.1 0.1 0.0 0.1 0.1 0.0
1.1 1.2 1.2 1.2 1.2 1.2 1.5 1.8 3.1 5.7 4.3 0.7 0.4 0.3 0.4 0.5 0.4 0.6 0.5 0.2 0.3 0.3 0.3 0.5 0.3 0.2 0.2 0.1 0.1 0.1 0.0 0.0 0.1 0.1 0.1 0.0 0.1 0.1
1.2 1.5 1.6 1.5 1.5 1.4 1.6 1.9 2.4 3.9 5.3 1.4 0.3 0.3 0.5 0.6 0.5 0.5 0.4 0.3 0.4 0.2 0.2 0.3 0.3 0.3 0.3 0.2 0.2 0.1 0.1 0.1 0.1 0.1 0.1 0.1 0.1 0.1
1.6 1.8 1.8 1.8 2.1 1.9 2.1 2.2 2.3 3.0 4.7 3.6 1.0 0.7 0.6 0.5 0.4 0.4 0.3 0.3 0.4 0.2 0.2 0.3 0.4 0.4 0.4 0.5 0.2 0.2 0.2 0.1 0.1 0.1 0.1 0.1 0.1 0.1
1.9 2.3 2.3 2.6 2.9 2.4 2.6 2.7 2.5 2.3 3.1 4.0 2.4 1.0 0.9 0.6 0.6 0.7 0.5 0.6 0.3 0.2 0.2 0.2 0.3 0.5 0.5 0.5 0.5 0.3 0.3 0.3 0.2 0.2 0.3 0.2 0.2 0.1
2.3 2.6 3.2 3.7 4.3 4.5 4.3 3.8 3.1 3.5 3.6 4.4 3.7 2.3 1.8 1.2 1.6 1.9 1.8 1.0 0.9 0.8 0.8 0.4 0.6 0.6 0.6 0.5 0.4 0.5 0.5 0.5 0.5 0.5 0.5 0.4 0.4 0.3
3.4 3.1 2.9 3.4 4.2 5.3 6.2 6.5 6.3 7.2 6.4 6.6 5.7 4.2 3.3 3.2 3.3 2.5 2.9 1.9 1.3 1.1 1.2 0.9 0.6 0.7 0.6 0.3 0.3 0.3 0.8 0.7 0.7 0.7 0.6 0.5 0.5 0.5
4.8 3.8 3.1 2.8 3.0 2.9 3.8 4.6 5.6 8.6 9.7 9.7 9.0 7.9 5.2 3.5 3.6 3.8 4.8 5.4 4.5 1.4 1.6 1.8 1.3 1.5 0.9 0.8 0.4 0.5 0.7 0.9 1.0 0.9 0.8 0.8 0.7 0.7
4.0 3.5 3.3 2.8 2.8 2.9 3.3 2.7 3.1 4.0 6.3 8.9 11.4 8.8 6.3 5.4 5.6 6.4 5.9 6.6 5.2 2.9 2.9 4.0 1.9 2.1 1.5 1.1 0.6 0.7 0.7 1.1 1.2 1.1 1.1 1.1 1.1 1.0
3.1 3.4 3.7 3.5 3.3 4.0 4.7 4.9 4.3 4.1 4.7 6.7 9.1 7.8 6.3 6.0 6.7 8.8 8.4 8.6 5.3 3.0 3.0 6.2 2.5 2.2 1.5 1.2 0.8 0.7 0.9 1.0 1.4 1.4 1.3 1.3 1.4 1.4
3.0 4.1 4.5 4.3 4.1 4.7 6.7 7.2 5.4 4.0 3.3 4.5 5.6 6.4 5.5 5.9 8.2 11.1 14.8 15.8 12.7 5.1 3.5 6.0 3.6 2.6 1.8 1.8 1.2 1.1 1.1 1.0 1.0 1.3 1.4 1.7 1.8 1.7
3.2 4.0 5.9 5.9 5.7 5.4 7.3 8.5 8.2 5.0 4.2 4.1 4.4 4.4 4.6 5.2 6.2 9.7 12.7 16.9 15.5 11.3 5.3 5.2 5.1 6.3 6.4 2.6 1.8 1.4 1.4 1.4 1.2 1.1 1.4 1.6 2.1 2.0
5.4 5.5 6.0 5.7 5.5 5.7 6.6 7.9 9.0 7.7 7.0 6.6 5.6 4.9 5.0 5.5 6.4 8.0 9.7 13.5 16.7 14.1 8.5 8.9 9.7 8.7 10.8 6.8 2.9 2.5 2.2 1.9 1.6 1.3 1.2 1.2 1.7 2.4
6.5 5.2 5.7 5.9 6.1 5.7 5.6 5.1 5.8 6.8 7.5 7.1 6.5 5.6 5.1 5.6 6.5 7.7 9.9 11.2 11.9 12.0 9.2 10.4 14.8 12.7 14.3 12.0 7.2 4.1 3.2 2.6 2.6 2.5 2.4 1.8 1.6 2.1
5.8 6.5 6.0 5.4 5.1 4.2 3.6 4.5 4.5 5.5 6.6 7.1 6.4 5.3 4.9 4.5 5.3 6.5 8.0 9.5 9.9 9.9 8.6 8.2 10.9 11.1 14.3 15.2 10.1 6.6 5.3 4.3 3.5 3.7 3.7 3.2 2.8 2.7
5.1 5.3 5.2 4.3 3.6 3.1 3.1 3.4 4.1 5.1 6.8 7.5 6.4 5.1 4.6 5.0 5.9 6.8 8.5 9.9 12.3 11.4 9.7 8.0 8.0 10.7 13.7 11.6 11.1 9.1 7.0 7.1 5.5 4.7 4.2 4.2 3.6 3.0
8.6 8.4 7.0 5.7 5.2 4.5 4.0 3.6 4.0 4.9 5.8 6.0 6.4 6.7 6.4 6.1 6.5 7.0 8.7 10.8 12.9 12.6 12.1 10.9 10.6 11.1 12.5 13.3 13.3 10.2 7.8 6.9 6.4 6.3 5.8 5.6 4.5 3.8
8.7 9.6 7.4 6.4 6.1 5.6 4.9 4.8 4.5 5.1 5.6 6.0 6.5 7.1 7.6 7.5 7.8 7.5 9.3 11.4 12.8 12.3 12.4 12.3 13.8 15.9 16.7 16.0 13.6 11.3 9.0 7.4 6.5 6.5 6.3 7.2 6.1 4.3
7.1 7.3 6.4 6.3 6.1 6.2 5.9 5.8 5.6 5.4 5.8 6.8 7.1 7.5 8.1 8.8 9.0 8.8 9.0 10.5 11.5 11.7 12.1 12.8 15.3 20.4 24.1 20.6 14.5 11.5 10.7 8.7 7.8 7.3 6.4 7.0 7.5 5.6
5.2 6.2 6.3 6.0 6.7 6.7 6.6 6.4 6.1 5.9 6.5 6.9 7.2 7.2 7.9 9.3 9.7 9.4 9.7 10.8 11.8 12.3 12.8 13.1 15.6 19.1 23.3 20.4 17.4 14.5 9.9 10.4 10.1 9.5 7.3 6.4 5.8 4.8
5.6 5.8 5.9 6.3 6.8 6.6 6.7 6.8 7.1 7.1 6.8 7.1 7.3 7.1 7.5 9.5 9.7 8.9 9.4 10.4 12.5 14.0 14.2 13.8 12.7 14.2 17.2 19.4 20.9 18.3 15.1 10.2 8.6 10.8 10.7 10.6 9.9 8.3
6.0 6.3 6.0 6.1 6.2 6.7 6.9 6.9 7.2 6.8 6.6 7.0 7.3 7.3 7.7 9.0 9.6 9.4 10.0 11.4 12.3 12.8 13.1 13.1 12.3 15.4 20.3 23.1 21.2 17.7 16.9 14.3 12.5 8.5 8.4 10.3 14.8 15.5
7.3 7.2 6.5 6.1 6.2 6.5 6.8 6.9 7.0 6.5 6.5 6.9 7.4 7.7 8.1 9.2 9.3 10.0 10.4 10.9 11.9 12.2 12.7 13.6 14.5 16.8 19.3 19.5 19.9 18.6 16.8 14.3 13.8 13.6 13.7 7.4 6.3 6.9